W0AVQ Weather Reports


time (UTC)temp
F
wind
direction
speed
knots
gust
knots
rain 1hr
in
rain 24hr
in
rain mn
in
humidity
%
barometer
mb
20260504160216 77 260 0.9 0.9 0.00 0.00 0.00 49 1011.9
20260504151144 73 228 2.6 6.1 0.00 0.00 0.00 62 1012.1
20260504150642 73 186 0.0 0.9 0.00 0.00 0.00 64 1012.1
20260504150138 73 198 0.0 0.0 0.00 0.00 0.00 63 1012.3
20260504141108 70 218 0.0 0.0 0.00 0.00 0.00 67 1012.7
20260504140604 69 297 0.0 0.0 0.00 0.00 0.00 68 1012.7
20260504130528 66 232 0.0 0.0 0.00 0.00 0.00 75 1013.0
20260504110416 58 251 0.0 0.0 0.00 0.00 0.00 84 1012.3
20260504100332 60 240 0.0 0.0 0.00 0.00 0.00 79 1012.3
20260504081726 62 214 0.0 0.0 0.00 0.00 0.00 73 1012.2
20260504081222 62 177 2.6 4.3 0.00 0.00 0.00 73 1011.8
20260504080718 62 206 0.0 0.0 0.00 0.00 0.00 74 1011.8
20260504080215 62 180 0.9 1.7 0.00 0.00 0.00 74 1012.1
20260504070143 63 193 0.0 0.0 0.00 0.00 0.00 72 1012.5
20260504060103 63 190 0.9 2.6 0.00 0.00 0.00 70 1013.1
20260504050531 64 176 1.7 4.3 0.00 0.00 0.00 68 1013.5
20260504045525 64 235 1.7 1.7 0.00 0.00 0.00 67 1013.6
20260504045021 64 225 0.0 0.9 0.00 0.00 0.00 67 1013.7
20260504044518 64 179 3.5 5.2 0.00 0.00 0.00 66 1013.4
20260504044015 64 256 0.0 0.0 0.00 0.00 0.00 66 1013.6
20260504043512 65 202 4.3 7.0 0.00 0.00 0.00 65 1013.7
20260504043010 65 219 0.0 1.7 0.00 0.00 0.00 65 1013.8
20260504042506 65 237 0.0 0.9 0.00 0.00 0.00 65 1013.7
20260504042003 65 235 0.9 1.7 0.00 0.00 0.00 64 1013.7
20260504041459 65 214 0.0 0.0 0.00 0.00 0.00 63 1013.6
20260504040955 65 179 0.0 0.0 0.00 0.00 0.00 63 1013.7
20260504040453 65 173 0.9 1.7 0.00 0.00 0.00 62 1013.8
20260504035949 65 227 0.0 0.0 0.00 0.00 0.00 62 1013.8
20260504035447 66 148 0.9 4.3 0.00 0.00 0.00 62 1013.7
20260504034943 66 171 2.6 4.3 0.00 0.00 0.00 61 1014.1
20260504034440 66 219 0.9 0.9 0.00 0.00 0.00 61 1014.0
20260504033937 66 209 0.0 0.0 0.00 0.00 0.00 61 1014.0
20260504033435 66 176 0.9 4.3 0.00 0.00 0.00 61 1014.0
20260504032932 66 228 0.0 0.0 0.00 0.00 0.00 60 1013.6
20260504032429 66 201 0.0 0.9 0.00 0.00 0.00 60 1014.2
20260504031925 66 188 4.3 6.1 0.00 0.00 0.00 60 1014.1
20260504031422 66 222 0.0 0.9 0.00 0.00 0.00 60 1014.3
20260504030919 66 244 0.0 0.0 0.00 0.00 0.00 60 1014.0
20260504030416 66 254 0.0 0.0 0.00 0.00 0.00 59 1014.0
20260504025912 66 186 0.0 0.0 0.00 0.00 0.00 59 1014.1
20260504025409 66 258 0.0 0.0 0.00 0.00 0.00 58 1014.4
20260504024906 66 188 1.7 2.6 0.00 0.00 0.00 58 1014.2
20260504024403 66 188 0.0 0.0 0.00 0.00 0.00 58 1014.0
20260504023900 66 308 0.0 0.9 0.00 0.00 0.00 58 1013.9
20260504023356 66 184 0.0 0.9 0.00 0.00 0.00 58 1014.3
20260504022852 66 225 0.0 0.0 0.00 0.00 0.00 58 1013.9
20260504022349 66 207 0.0 0.0 0.00 0.00 0.00 57 1014.0
20260504021845 66 221 0.0 0.0 0.00 0.00 0.00 58 1013.9
20260504021343 66 171 0.0 1.7 0.00 0.00 0.00 58 1014.0
20260504020840 66 209 0.0 0.0 0.00 0.00 0.00 58 1014.0
20260504020336 66 203 0.0 0.0 0.00 0.00 0.00 57 1014.1
20260504015832 66 207 1.7 2.6 0.00 0.00 0.00 57 1013.9
20260504015329 66 195 0.0 0.0 0.00 0.00 0.00 57 1014.1
20260504014825 66 234 0.0 0.0 0.00 0.00 0.00 56 1013.9
20260504014321 66 186 0.0 0.0 0.00 0.00 0.00 56 1013.9
20260504013819 66 218 0.0 0.9 0.00 0.00 0.00 55 1013.9
20260504013317 66 238 0.0 0.0 0.00 0.00 0.00 55 1013.9
20260504012813 66 176 0.0 0.0 0.00 0.00 0.00 55 1013.7
20260504012311 67 239 0.0 0.0 0.00 0.00 0.00 55 1014.0
20260504011808 67 233 0.0 0.0 0.00 0.00 0.00 54 1013.9
20260504011304 67 211 0.0 0.0 0.00 0.00 0.00 54 1013.9
20260504010800 67 194 0.0 0.9 0.00 0.00 0.00 53 1013.9
20260504010256 67 194 0.9 0.9 0.00 0.00 0.00 53 1013.9
20260504005753 68 218 0.0 0.0 0.00 0.00 0.00 52 1013.8
20260504005250 68 225 0.0 0.0 0.00 0.00 0.00 52 1014.0
20260504004748 68 185 0.9 1.7 0.00 0.00 0.00 51 1013.6
20260504004245 68 183 0.9 2.6 0.00 0.00 0.00 50 1013.8
20260504003741 68 188 1.7 2.6 0.00 0.00 0.00 50 1013.8
20260504003238 69 169 1.7 1.7 0.00 0.00 0.00 49 1013.9
20260504002735 69 209 0.9 1.7 0.00 0.00 0.00 48 1014.0
20260504002231 69 189 0.0 0.0 0.00 0.00 0.00 48 1014.3
20260504001730 70 185 0.9 1.7 0.00 0.00 0.00 47 1014.2
20260504001226 70 199 0.0 0.0 0.00 0.00 0.00 46 1013.9
20260504000723 70 220 0.0 0.0 0.00 0.00 0.00 47 1014.0
20260504000220 70 211 2.6 4.3 0.00 0.00 0.00 45 1014.2
20260503235718 71 222 0.0 0.0 0.00 0.00 0.00 45 1014.3
20260503235215 71 186 0.0 0.0 0.00 0.00 0.00 44 1014.2
20260503234713 71 172 0.9 1.7 0.00 0.00 0.00 44 1014.5
20260503234211 71 187 2.6 5.2 0.00 0.00 0.00 44 1014.5
20260503233708 71 198 0.0 1.7 0.00 0.00 0.00 44 1014.5
20260503233203 71 222 2.6 2.6 0.00 0.00 0.00 42 1014.4
20260503232700 71 162 0.0 0.9 0.00 0.00 0.00 43 1014.3
20260503232157 71 213 1.7 2.6 0.00 0.00 0.00 41 1014.7
20260503231656 72 203 1.7 2.6 0.00 0.00 0.00 42 1014.4
20260503231151 72 236 0.0 0.0 0.00 0.00 0.00 42 1014.4
20260503230648 72 196 6.1 8.7 0.00 0.00 0.00 40 1014.5
20260503230145 72 187 0.9 1.7 0.00 0.00 0.00 41 1014.8
20260503225643 72 200 1.7 2.6 0.00 0.00 0.00 42 1014.8
20260503225143 72 239 1.7 2.6 0.00 0.00 0.00 42 1014.6
20260503224640 72 248 0.0 1.7 0.00 0.00 0.00 41 1014.8
20260503224138 72 222 0.0 0.9 0.00 0.00 0.00 41 1014.7
20260503223636 72 220 0.0 0.0 0.00 0.00 0.00 40 1014.8
20260503223132 72 178 3.5 4.3 0.00 0.00 0.00 41 1014.6
20260503222629 72 184 0.0 0.0 0.00 0.00 0.00 42 1015.0
20260503222127 72 202 2.6 4.3 0.00 0.00 0.00 42 1015.0
20260503221625 72 250 0.9 1.7 0.00 0.00 0.00 43 1015.2
20260503221122 71 223 0.0 0.9 0.00 0.00 0.00 42 1015.1
20260503220619 71 244 0.0 0.0 0.00 0.00 0.00 43 1015.4
20260503220115 71 219 4.3 6.1 0.00 0.00 0.00 42 1015.4
20260503215613 71 192 2.6 4.3 0.00 0.00 0.00 42 1015.3
20260503215109 72 189 0.9 2.6 0.00 0.00 0.00 43 1015.6
20260503214608 72 240 0.9 2.6 0.00 0.00 0.00 43 1015.6
20260503214104 73 202 0.0 0.0 0.00 0.00 0.00 41 1015.6
20260503213603 72 208 0.0 0.0 0.00 0.00 0.00 42 1015.9
20260503213058 71 149 0.9 2.6 0.00 0.00 0.00 41 1015.7
20260503212556 71 153 2.6 5.2 0.00 0.00 0.00 40 1015.7
20260503212053 71 142 4.3 6.1 0.00 0.00 0.00 41 1016.1
20260503211551 71 181 0.0 0.9 0.00 0.00 0.00 42 1016.0
20260503211046 71 225 2.6 2.6 0.00 0.00 0.00 42 1016.4
20260503210543 71 197 4.3 5.2 0.00 0.00 0.00 40 1016.2
20260503210038 71 164 1.7 2.6 0.00 0.00 0.00 42 1016.5
20260503205535 71 140 2.6 2.6 0.00 0.00 0.00 42 1016.6
20260503205032 71 218 6.1 7.8 0.00 0.00 0.00 42 1016.6
20260503204529 71 158 3.5 6.1 0.00 0.00 0.00 43 1016.5
20260503204026 71 203 2.6 4.3 0.00 0.00 0.00 43 1016.8
20260503203523 70 234 2.6 4.3 0.00 0.00 0.00 43 1016.8
20260503203020 70 203 0.9 2.6 0.00 0.00 0.00 44 1017.3
20260503202518 70 175 5.2 7.8 0.00 0.00 0.00 43 1017.2
20260503202016 70 175 6.1 7.0 0.00 0.00 0.00 43 1017.4
20260503201514 71 185 0.9 1.7 0.00 0.00 0.00 45 1017.5
20260503201011 70 235 1.7 1.7 0.00 0.00 0.00 44 1017.6
20260503200507 70 213 3.5 4.3 0.00 0.00 0.00 45 1017.6
20260503200004 69 186 10.4 17.4 0.00 0.00 0.00 43 1017.9
20260503195501 70 165 0.9 1.7 0.00 0.00 0.00 44 1017.8
20260503194957 70 187 2.6 4.3 0.00 0.00 0.00 44 1018.0
20260503194455 70 227 1.7 2.6 0.00 0.00 0.00 43 1018.2
20260503193949 69 199 0.0 0.9 0.00 0.00 0.00 45 1018.3
20260503193445 69 223 0.0 0.0 0.00 0.00 0.00 49 1018.3
20260503192941 69 203 2.6 5.2 0.00 0.00 0.00 45 1018.5
20260503192438 69 178 0.0 0.9 0.00 0.00 0.00 47 1018.4
20260503191933 68 222 1.7 1.7 0.00 0.00 0.00 43 1018.8
20260503191431 69 194 7.0 9.6 0.00 0.00 0.00 44 1019.0
20260503190927 69 187 0.0 0.9 0.00 0.00 0.00 49 1018.9
20260503190425 69 236 0.9 2.6 0.00 0.00 0.00 48 1019.3
20260503185922 68 163 2.6 2.6 0.00 0.00 0.00 49 1019.2
20260503185418 68 128 1.7 2.6 0.00 0.00 0.00 47 1019.3
20260503184917 69 222 7.8 12.2 0.00 0.00 0.00 46 1019.4
20260503184414 68 231 0.0 0.0 0.00 0.00 0.00 47 1019.4
20260503183910 68 207 1.7 2.6 0.00 0.00 0.00 47 1019.5
20260503183407 67 164 0.0 0.9 0.00 0.00 0.00 47 1020.0
20260503182904 68 221 6.1 7.0 0.00 0.00 0.00 47 1019.9
20260503182403 68 233 0.9 1.7 0.00 0.00 0.00 47 1019.8
20260503181900 67 177 7.0 7.8 0.00 0.00 0.00 46 1019.9
20260503181357 66 248 0.9 2.6 0.00 0.00 0.00 50 1020.1
20260503180853 66 281 2.6 4.3 0.00 0.00 0.00 48 1020.1
20260503180351 66 203 5.2 7.8 0.00 0.00 0.00 48 1020.2
20260503175847 67 204 0.0 0.9 0.00 0.00 0.00 46 1020.4
20260503175346 66 195 3.5 4.3 0.00 0.00 0.00 47 1020.5
20260503174841 67 199 0.9 0.9 0.00 0.00 0.00 49 1020.6
20260503174339 66 163 0.0 0.9 0.00 0.00 0.00 51 1021.0
20260503173834 66 230 1.7 2.6 0.00 0.00 0.00 50 1020.9
20260503173331 66 197 0.9 1.7 0.00 0.00 0.00 50 1021.1
20260503172827 66 201 3.5 5.2 0.00 0.00 0.00 49 1021.2
20260503172326 66 188 4.3 5.2 0.00 0.00 0.00 48 1021.2
20260503171821 65 223 3.5 5.2 0.00 0.00 0.00 48 1021.6
20260503171318 64 195 0.9 2.6 0.00 0.00 0.00 52 1021.5
20260503170816 65 175 3.5 5.2 0.00 0.00 0.00 49 1021.5
20260503170312 65 267 0.0 0.9 0.00 0.00 0.00 52 1021.5